Location: *
(29.1167°S, 130.0000°E)
Time: 06:38:39
(UTC+00:00)

Feng Yun 1-1 Rocket - Pass Details

Date: 21 July 2019
Orbit: 830 x 933 km, 99.2° (Epoch: 23 August)

Event Time Altitude Azimuth Distance (km) Brightness Sun altitude
Rises 09:16:42 0° 166° (SSE) 3,586 7.1 -7.8°
Reaches altitude 10° 09:19:10 10° 165° (SSE) 2,626 6.4 -8.3°
Maximum altitude 09:25:02 83° 78° (ENE) 913 4.3 -9.5°
Drops below altitude 10° 09:30:42 10° 348° (NNW) 2,529 7.1 -10.7°
Sets 09:33:02 0° 347° (NNW) 3,445 7.8 -11.2°
